JD,Date,Time,Lat,Long,"xCO2,w","xCO2,a",EqTemp,Pressure_Equi,SST(TSG),Sal(TSG),"fCO2w,eq","fCO2w,in situ",fCO2a,dfCO2
124.011,5/4/99,0:16:24,-5.386,97.67,408.33,370.26,29.18,1009.04,29.01,34.41,389.59,387.07,353.31,33.76
124.014,5/4/99,0:20:50,-5.385,97.663,403.34,370.26,29.18,1008.99,29.01,34.43,384.81,382.34,353.31,29.03
124.018,5/4/99,0:25:20,-5.385,97.663,402.62,370.26,29.19,1009.02,29.02,34.44,384.13,381.67,353.31,28.37
124.021,5/4/99,0:29:50,-5.382,97.624,406.59,370.26,29.2,1009.33,29.02,34.44,388.04,385.5,353.31,32.19
124.032,5/4/99,0:46:22,-5.377,97.566,420.41,370.26,29.18,1009.37,29.01,34.46,401.25,398.67,353.31,45.37
124.035,5/4/99,0:50:50,-5.375,97.551,426.54,370.26,29.18,1009.29,29.02,34.47,407.07,404.58,353.31,51.28
124.038,5/4/99,0:55:20,-5.374,97.535,405.74,370.26,29.19,1009.53,29.03,34.47,387.3,384.95,353.31,31.65
124.042,5/4/99,0:59:50,-5.372,97.52,415.33,370.26,29.19,1009.44,29.03,34.48,396.41,393.99,353.31,40.68
124.053,5/4/99,1:16:24,-5.366,97.462,403.2,368.66,29.21,1009.81,29.04,34.51,384.98,382.56,352.02,30.54
124.056,5/4/99,1:20:50,-5.365,97.447,413.63,368.66,29.21,1009.87,29.04,34.51,394.96,392.52,352.02,40.5
124.059,5/4/99,1:25:20,-5.363,97.43,416.63,368.66,29.21,1009.59,29.04,34.51,397.71,395.19,352.02,43.18
124.062,5/4/99,1:29:50,-5.362,97.416,403.42,368.66,29.21,1009.93,29.02,34.51,385.25,382.57,352.02,30.55
124.074,5/4/99,1:46:22,-5.356,97.358,408.08,368.66,29.17,1009.88,29,34.52,389.7,387.24,352.02,35.22
124.077,5/4/99,1:50:50,-5.354,97.343,416,368.66,29.17,1009.99,28.99,34.52,397.32,394.6,352.02,42.58
124.08,5/4/99,1:55:20,-5.352,97.328,405.45,368.66,29.17,1009.92,29,34.52,387.2,384.69,352.02,32.67
124.083,5/4/99,1:59:50,-5.35,97.313,435.49,368.66,29.17,1009.95,29.01,34.53,415.9,413.37,352.02,61.35
124.095,5/4/99,2:16:24,-5.345,97.255,433.05,368.57,29.19,1009.92,29.01,34.51,413.55,410.72,352,58.72
124.098,5/4/99,2:20:50,-5.343,97.241,435.97,368.57,29.19,1010.05,29.01,34.5,416.4,413.57,352,61.58
124.101,5/4/99,2:25:20,-5.342,97.225,422.22,368.57,29.19,1009.95,29.01,34.49,403.22,400.55,352,48.55
124.104,5/4/99,2:29:50,-5.34,97.21,425.74,368.57,29.2,1010.07,29.03,34.48,406.62,404.09,352,52.1
124.116,5/4/99,2:46:22,-5.334,97.153,407.41,368.57,29.24,1010.13,29.08,34.46,389.09,386.71,352,34.72
124.119,5/4/99,2:50:50,-5.332,97.138,404.66,368.57,29.25,1010.19,29.08,34.47,386.48,384.02,352,32.03
124.122,5/4/99,2:55:20,-5.33,97.122,413,368.57,29.26,1010.05,29.09,34.47,394.38,391.85,352,39.85
124.125,5/4/99,2:59:50,-5.329,97.107,399.91,368.57,29.27,1010.24,29.09,34.47,381.96,379.4,352,27.4
124.136,5/4/99,3:16:24,-5.328,97.092,411.26,368.87,29.32,1010.31,29.16,34.48,392.76,390.43,352.49,37.94
124.139,5/4/99,3:20:50,-5.328,97.092,410.72,368.87,29.33,1010.49,29.15,34.47,392.32,389.7,352.49,37.21
124.143,5/4/99,3:25:20,-5.328,97.092,392.89,368.87,29.34,1010.62,29.15,34.47,375.35,372.72,352.49,20.22
124.146,5/4/99,3:29:50,-5.328,97.092,391.09,368.87,29.35,1010.73,29.16,34.46,373.66,371.06,352.49,18.56
124.157,5/4/99,3:46:22,-5.312,96.949,391.4,368.87,29.37,1011.01,29.19,34.47,374.04,371.59,352.49,19.1
124.16,5/4/99,3:50:50,-5.31,96.934,391.33,368.87,29.37,1010.95,29.19,34.47,373.95,371.46,352.49,18.97
124.163,5/4/99,3:55:20,-5.308,96.918,390.87,368.87,29.37,1010.87,29.21,34.47,373.46,371.29,352.49,18.8
124.167,5/4/99,3:59:50,-5.307,96.904,390.11,368.87,29.39,1010.84,29.21,34.47,372.72,370.23,352.49,17.74
124.178,5/4/99,4:16:24,-5.301,96.847,391.94,368.9,29.38,1010.88,29.21,34.45,374.49,372.09,352.17,19.92
124.181,5/4/99,4:20:50,-5.3,96.832,391.61,368.9,29.39,1010.73,29.2,34.45,374.12,371.42,352.17,19.26
124.184,5/4/99,4:25:20,-5.298,96.817,391.05,368.9,29.37,1010.51,29.17,34.41,373.53,370.79,352.17,18.62
124.187,5/4/99,4:29:50,-5.297,96.802,389.99,368.9,29.36,1010.36,29.23,34.44,372.4,370.66,352.17,18.49
124.199,5/4/99,4:46:22,-5.291,96.745,396.38,368.9,29.4,1009.69,29.22,34.42,378.25,375.75,352.17,23.58
124.202,5/4/99,4:50:50,-5.289,96.73,399.93,368.9,29.4,1009.52,29.2,34.41,381.6,378.78,352.17,26.62
124.205,5/4/99,4:55:20,-5.288,96.714,396.18,368.9,29.39,1009.25,29.22,34.41,377.89,375.53,352.17,23.36
124.208,5/4/99,4:59:50,-5.286,96.699,398.65,368.9,29.41,1009.1,29.25,34.41,380.17,377.93,352.17,25.76
124.22,5/4/99,5:16:24,-5.279,96.642,399.41,368.98,29.42,1009.07,29.22,34.39,380.9,378.05,351.9,26.15
124.223,5/4/99,5:20:50,-5.277,96.627,403.84,368.98,29.41,1009.25,29.24,34.39,385.18,382.7,351.9,30.81
124.226,5/4/99,5:25:20,-5.276,96.611,399.78,368.98,29.42,1009.13,29.27,34.39,381.24,379.07,351.9,27.17
124.229,5/4/99,5:29:50,-5.274,96.596,407.09,368.98,29.46,1009.14,29.25,34.38,388.23,385.25,351.9,33.35
124.241,5/4/99,5:46:22,-5.269,96.539,389.99,368.98,29.41,1009.04,29.21,34.4,371.92,369.09,351.9,17.19
124.244,5/4/99,5:50:50,-5.268,96.524,390.1,368.98,29.39,1008.87,29.18,34.4,371.98,369.02,351.9,17.13
124.247,5/4/99,5:55:20,-5.266,96.509,389.52,368.98,29.37,1008.97,29.2,34.39,371.45,369.05,351.9,17.16
124.25,5/4/99,5:59:50,-5.265,96.494,388.61,368.98,29.41,1008.84,29.27,34.37,370.47,368.48,351.9,16.58
124.261,5/4/99,6:16:24,-5.258,96.437,389.21,369.17,29.41,1008.72,29.21,34.31,371.05,368.25,351.87,16.39
124.264,5/4/99,6:20:50,-5.256,96.423,387.17,369.17,29.4,1008.66,29.22,34.31,369.07,366.54,351.87,14.68
124.268,5/4/99,6:25:20,-5.254,96.407,386.83,369.17,29.41,1008.71,29.23,34.31,368.77,366.27,351.87,14.41
124.271,5/4/99,6:29:50,-5.252,96.392,386.72,369.17,29.42,1008.68,29.21,34.3,368.66,365.72,351.87,13.86
124.282,5/4/99,6:46:22,-5.246,96.334,391.74,369.17,29.38,1008.51,29.2,34.38,373.39,370.82,351.87,18.96
124.285,5/4/99,6:50:50,-5.244,96.32,388.19,369.17,29.38,1008.35,29.2,34.38,369.95,367.44,351.87,15.57
124.288,5/4/99,6:55:20,-5.243,96.304,387.88,369.17,29.39,1008.18,29.2,34.37,369.59,366.94,351.87,15.07
124.292,5/4/99,6:59:50,-5.241,96.289,388.37,369.17,29.39,1008.15,29.18,34.35,370.06,367.15,351.87,15.29
124.303,5/4/99,7:16:24,-5.236,96.231,388.14,368.9,29.38,1007.83,29.19,34.34,369.71,367.03,351.33,15.7
124.306,5/4/99,7:20:50,-5.235,96.216,388.05,368.9,29.37,1007.72,29.17,34.36,369.6,366.82,351.33,15.49
124.309,5/4/99,7:25:20,-5.233,96.2,388.65,368.9,29.37,1007.79,29.15,34.37,370.22,367.22,351.33,15.89
124.312,5/4/99,7:29:50,-5.231,96.185,387.74,368.9,29.34,1007.66,29.15,34.39,369.3,366.71,351.33,15.38
124.324,5/4/99,7:46:22,-5.225,96.128,388.12,368.9,29.35,1007.51,29.14,34.38,369.61,366.76,351.33,15.43
124.327,5/4/99,7:50:50,-5.225,96.113,387.97,368.9,29.33,1007.57,29.13,34.39,369.5,366.71,351.33,15.38
124.33,5/4/99,7:55:20,-5.226,96.108,388.68,368.9,29.31,1007.42,29.12,34.38,370.12,367.43,351.33,16.1
124.333,5/4/99,7:59:50,-5.226,96.107,387.92,368.9,29.3,1007.25,29.12,34.38,369.34,366.79,351.33,15.46
124.345,5/4/99,8:16:24,-5.226,96.107,389.41,368.92,29.3,1007.16,29.12,34.38,370.73,368.23,351.21,17.02
124.348,5/4/99,8:20:50,-5.226,96.108,388.25,368.92,29.31,1007.12,29.12,34.38,369.61,366.98,351.21,15.76
124.351,5/4/99,8:25:20,-5.226,96.108,388.54,368.92,29.31,1007.19,29.12,34.38,369.91,367.32,351.21,16.11
124.354,5/4/99,8:29:50,-5.226,96.108,387.74,368.92,29.3,1007.16,29.12,34.38,369.13,366.61,351.21,15.4
124.366,5/4/99,8:46:22,-5.223,96.08,387.99,368.92,29.33,1007.14,29.16,34.37,369.33,367.03,351.21,15.81
124.369,5/4/99,8:50:50,-5.22,96.065,388.08,368.92,29.34,1007.4,29.17,34.35,369.5,367.18,351.21,15.97
124.372,5/4/99,8:55:20,-5.217,96.049,389.35,368.92,29.35,1007.35,29.19,34.37,370.67,368.42,351.21,17.21
124.375,5/4/99,8:59:50,-5.216,96.034,388.68,368.92,29.37,1007.37,29.2,34.37,370.04,367.67,351.21,16.45
124.386,5/4/99,9:16:24,-5.209,95.976,389.62,368.91,29.38,1007.28,29.2,34.36,370.9,368.34,351.18,17.16
124.389,5/4/99,9:20:50,-5.208,95.961,390.07,368.91,29.4,1007.36,29.21,34.35,371.35,368.74,351.18,17.56
124.393,5/4/99,9:25:20,-5.206,95.945,389,368.91,29.4,1007.2,29.21,34.35,370.27,367.67,351.18,16.49
124.396,5/4/99,9:29:50,-5.204,95.93,389.64,368.91,29.4,1007.37,29.2,34.34,370.95,368.26,351.18,17.08
124.407,5/4/99,9:46:22,-5.198,95.871,390.67,368.91,29.4,1007.3,29.22,34.44,371.89,369.36,351.18,18.18
124.41,5/4/99,9:50:50,-5.197,95.855,391.13,368.91,29.4,1007.18,29.22,34.43,372.28,369.81,351.18,18.64
124.413,5/4/99,9:55:20,-5.195,95.839,391.65,368.91,29.41,1007.05,29.22,34.43,372.72,370.15,351.18,18.97
124.417,5/4/99,9:59:50,-5.194,95.823,391.29,368.91,29.4,1007.17,29.22,34.44,372.43,369.9,351.18,18.72
124.428,5/4/99,10:16:24,-5.189,95.764,392.1,368.99,29.44,1007.04,29.25,34.45,373.12,370.54,351.16,19.38
124.431,5/4/99,10:20:50,-5.187,95.748,392.5,368.99,29.44,1007.08,29.26,34.46,373.51,371,351.16,19.84
124.434,5/4/99,10:25:20,-5.185,95.733,392.39,368.99,29.44,1007.31,29.27,34.46,373.49,371.1,351.16,19.93
124.437,5/4/99,10:29:50,-5.184,95.717,392.94,368.99,29.46,1007.16,29.28,34.47,373.95,371.47,351.16,20.31
124.449,5/4/99,10:46:22,-5.178,95.658,392.61,368.99,29.47,1006.97,29.27,34.34,373.56,370.75,351.16,19.59
124.452,5/4/99,10:50:50,-5.175,95.643,391.01,368.99,29.46,1007.39,29.26,34.35,372.21,369.47,351.16,18.31
124.455,5/4/99,10:55:20,-5.173,95.626,391.46,368.99,29.46,1007.06,29.3,34.43,372.47,370.2,351.16,19.04
124.458,5/4/99,10:59:50,-5.171,95.61,391.83,368.99,29.49,1007.4,29.31,34.44,372.96,370.4,351.16,19.24
124.47,5/4/99,11:16:24,-5.165,95.55,393.33,368.86,29.47,1007.32,29.3,34.41,374.35,371.93,351.01,20.92
124.473,5/4/99,11:20:50,-5.163,95.534,391.79,368.86,29.49,1007.21,29.31,34.38,372.85,370.35,351.01,19.34
124.476,5/4/99,11:25:20,-5.161,95.517,392.28,368.86,29.49,1006.88,29.29,34.4,373.2,370.36,351.01,19.36
124.479,5/4/99,11:29:50,-5.16,95.502,391.08,368.86,29.48,1007.07,29.29,34.41,372.13,369.5,351.01,18.5
124.491,5/4/99,11:46:22,-5.154,95.441,392.7,368.86,29.49,1007.59,29.29,34.36,373.88,371.15,351.01,20.15
124.494,5/4/99,11:50:50,-5.152,95.425,392.33,368.86,29.46,1007.56,29.27,34.37,373.52,370.89,351.01,19.88
124.497,5/4/99,11:55:20,-5.15,95.408,391.35,368.86,29.45,1007.79,29.28,34.4,372.67,370.24,351.01,19.24
124.5,5/4/99,11:59:50,-5.149,95.393,393.39,368.86,29.48,1007.72,29.28,34.4,374.59,371.83,351.01,20.82
124.511,5/4/99,12:16:24,-5.147,95.372,391.06,368.25,29.45,1008.27,29.28,34.42,372.58,370.23,350.86,19.36
124.514,5/4/99,12:20:50,-5.147,95.372,391.61,368.25,29.46,1008.32,29.29,34.45,373.12,370.74,350.86,19.88
124.518,5/4/99,12:25:20,-5.139,95.3,391.3,368.25,29.48,1008.28,29.29,34.45,372.8,370.13,350.86,19.27
124.521,5/4/99,12:29:50,-5.137,95.284,391.72,368.25,29.46,1008.38,29.29,34.45,373.24,370.85,350.86,19.99
124.532,5/4/99,12:46:22,-5.131,95.225,392.34,368.25,29.45,1008.42,29.26,34.48,373.88,371.19,350.86,20.32
124.535,5/4/99,12:50:50,-5.128,95.208,391.96,368.25,29.45,1008.26,29.25,34.48,373.47,370.66,350.86,19.79
124.538,5/4/99,12:55:20,-5.127,95.192,392.5,368.25,29.43,1008.7,29.26,34.49,374.13,371.74,350.86,20.88
124.542,5/4/99,12:59:50,-5.124,95.175,392.59,368.25,29.44,1008.62,29.26,34.5,374.19,371.7,350.86,20.83
124.553,5/4/99,13:16:24,-5.118,95.115,393.36,368.49,29.47,1008.99,29.3,34.5,375.03,372.69,351.38,21.31
124.556,5/4/99,13:20:50,-5.116,95.1,394.07,368.49,29.49,1008.9,29.31,34.48,375.67,373.21,351.38,21.83
124.559,5/4/99,13:25:20,-5.114,95.084,393.34,368.49,29.5,1008.9,29.31,34.47,374.97,372.36,351.38,20.98
124.562,5/4/99,13:29:50,-5.112,95.067,393.01,368.49,29.48,1009.09,29.29,34.46,374.74,372.1,351.38,20.72
124.574,5/4/99,13:46:22,-5.106,95.007,393.83,368.49,29.47,1009.57,29.28,34.5,375.72,373.01,351.38,21.63
124.577,5/4/99,13:50:50,-5.103,94.99,394.11,368.49,29.46,1009.32,29.29,34.5,375.89,373.52,351.38,22.14
124.58,5/4/99,13:55:20,-5.102,94.974,394.18,368.49,29.48,1009.49,29.28,34.48,376.03,373.19,351.38,21.82
124.583,5/4/99,13:59:50,-5.1,94.957,394.62,368.49,29.46,1009.26,29.28,34.49,376.36,373.83,351.38,22.45
124.595,5/4/99,14:16:24,-5.094,94.896,394.94,368.34,29.48,1009.39,29.3,34.55,376.7,374.11,351.41,22.7
124.598,5/4/99,14:20:50,-5.092,94.88,395.45,368.34,29.48,1009.51,29.29,34.56,377.24,374.61,351.41,23.2
124.601,5/4/99,14:25:20,-5.091,94.864,395.6,368.34,29.48,1009.61,29.29,34.57,377.42,374.76,351.41,23.35
124.604,5/4/99,14:29:50,-5.089,94.847,395.58,368.34,29.47,1009.46,29.27,34.58,377.36,374.5,351.41,23.09
124.616,5/4/99,14:46:22,-5.083,94.788,397.79,368.34,29.49,1009.76,29.31,34.63,379.55,377.03,351.41,25.62
124.619,5/4/99,14:50:50,-5.081,94.771,398.48,368.34,29.51,1009.86,29.33,34.66,380.23,377.74,351.41,26.33
124.622,5/4/99,14:55:20,-5.079,94.755,397.79,368.34,29.51,1009.67,29.33,34.66,379.5,377.02,351.41,25.6
124.625,5/4/99,14:59:50,-5.077,94.738,399.58,368.34,29.52,1009.79,29.33,34.65,381.26,378.6,351.41,27.18
124.636,5/4/99,15:16:24,-5.07,94.677,399.32,368.53,29.53,1010.16,29.35,34.65,381.13,378.57,351.69,26.88
124.639,5/4/99,15:20:50,-5.068,94.661,400.4,368.53,29.53,1010.04,29.34,34.65,382.12,379.45,351.69,27.77
124.643,5/4/99,15:25:20,-5.067,94.645,399.21,368.53,29.52,1010.05,29.35,34.64,380.98,378.55,351.69,26.86
124.646,5/4/99,15:29:50,-5.065,94.628,399.72,368.53,29.55,1009.86,29.34,34.64,381.4,378.45,351.69,26.76
124.657,5/4/99,15:46:22,-5.06,94.569,397.34,368.53,29.5,1009.91,29.34,34.59,379.15,376.85,351.69,25.16
124.66,5/4/99,15:50:50,-5.058,94.552,396.61,368.53,29.51,1009.96,29.34,34.59,378.47,376.12,351.69,24.43
124.663,5/4/99,15:55:20,-5.056,94.537,397.51,368.53,29.52,1009.98,29.35,34.59,379.34,376.91,351.69,25.22
124.667,5/4/99,15:59:50,-5.054,94.519,396.96,368.53,29.53,1010.29,29.35,34.59,378.93,376.42,351.69,24.74
124.678,5/4/99,16:16:24,-5.048,94.459,396.72,368.6,29.5,1009.99,29.29,34.56,378.64,375.74,351.88,23.86
124.681,5/4/99,16:20:50,-5.046,94.443,395.95,368.6,29.46,1010.07,29.25,34.55,377.97,374.96,351.88,23.08
124.684,5/4/99,16:25:20,-5.045,94.427,395.71,368.6,29.44,1010.12,29.24,34.54,377.76,374.97,351.88,23.09
124.687,5/4/99,16:29:50,-5.043,94.41,394.47,368.6,29.41,1009.95,29.2,34.53,376.55,373.68,351.88,21.8
124.699,5/4/99,16:46:22,-5.038,94.351,392.46,368.6,29.44,1010.03,29.27,34.49,374.61,372.29,351.88,20.41
124.702,5/4/99,16:50:50,-5.036,94.334,392.37,368.6,29.44,1010.05,29.27,34.47,374.53,372.13,351.88,20.25
124.705,5/4/99,16:55:20,-5.034,94.319,392.93,368.6,29.45,1009.66,29.28,34.48,374.9,372.56,351.88,20.68
124.708,5/4/99,16:59:50,-5.032,94.302,392.37,368.6,29.45,1009.8,29.29,34.49,374.41,372.16,351.88,20.28
124.72,5/4/99,17:16:24,-5.026,94.244,392.47,368.17,29.41,1009.93,29.22,34.47,374.62,372.04,351.35,20.69
124.723,5/4/99,17:20:50,-5.025,94.227,391.41,368.17,29.38,1009.58,29.18,34.47,373.51,370.68,351.35,19.33
124.726,5/4/99,17:25:20,-5.023,94.211,390.68,368.17,29.36,1009.89,29.13,34.46,372.97,369.84,351.35,18.49
124.729,5/4/99,17:29:50,-5.021,94.195,391.39,368.17,29.33,1009.76,29.14,34.47,373.59,370.95,351.35,19.61
124.741,5/4/99,17:46:22,-5.013,94.137,391.32,368.17,29.38,1009.67,29.24,34.55,373.41,371.41,351.35,20.06
124.744,5/4/99,17:50:50,-5.011,94.12,392.67,368.17,29.44,1009.45,29.24,34.55,374.61,371.8,351.35,20.45
124.747,5/4/99,17:55:20,-5.01,94.105,392.19,368.17,29.42,1009.2,29.24,34.53,374.05,371.48,351.35,20.13
124.75,5/4/99,17:59:50,-5.008,94.089,392.05,368.17,29.41,1009.44,29.23,34.52,374.02,371.52,351.35,20.17
124.761,5/4/99,18:16:24,-5.002,94.031,390.86,368.31,29.44,1009.24,29.26,34.52,372.78,370.34,351.18,19.16
124.764,5/4/99,18:20:50,-5.001,94.016,391.08,368.31,29.44,1009.19,29.24,34.5,372.99,370.21,351.18,19.03
124.768,5/4/99,18:25:20,-5,94.006,390.64,368.31,29.43,1009.21,29.25,34.49,372.57,370.11,351.18,18.93
124.771,5/4/99,18:29:50,-5,94.001,390.71,368.31,29.43,1008.94,29.25,34.49,372.53,370.03,351.18,18.85
124.782,5/4/99,18:46:22,-5,94.001,390.6,368.31,29.42,1008.96,29.24,34.48,372.44,369.99,351.18,18.81
124.785,5/4/99,18:50:50,-5,94.001,391.39,368.31,29.42,1008.81,29.24,34.48,373.14,370.6,351.18,19.42
124.788,5/4/99,18:55:20,-5,94.001,391.3,368.31,29.42,1008.89,29.24,34.48,373.09,370.59,351.18,19.41
124.792,5/4/99,18:59:50,-5,94.001,390.31,368.31,29.43,1008.71,29.24,34.49,372.07,369.46,351.18,18.28
124.803,5/4/99,19:16:24,-5,94.001,391.94,369.23,29.42,1008.5,29.25,34.49,373.54,371.2,351.92,19.27
124.806,5/4/99,19:20:50,-5,94.002,391.13,369.23,29.43,1008.61,29.25,34.49,372.8,370.32,351.92,18.4
124.809,5/4/99,19:25:20,-5,94.001,391.3,369.23,29.42,1008.54,29.24,34.49,372.95,370.45,351.92,18.53
124.812,5/4/99,19:29:50,-5,94.001,391.39,369.23,29.43,1008.73,29.24,34.49,373.11,370.43,351.92,18.51
124.824,5/4/99,19:46:22,-4.969,93.97,391.13,369.23,29.41,1008.39,29.24,34.47,372.73,370.39,351.92,18.47
124.827,5/4/99,19:50:50,-4.957,93.958,391.68,369.23,29.42,1008.36,29.24,34.47,373.24,370.7,351.92,18.78
124.83,5/4/99,19:55:20,-4.946,93.946,390.6,369.23,29.43,1008.4,29.24,34.48,372.23,369.59,351.92,17.67
124.833,5/4/99,19:59:50,-4.935,93.934,390.73,369.23,29.42,1008.42,29.23,34.46,372.37,369.79,351.92,17.87
124.845,5/4/99,20:16:24,-4.893,93.893,390.27,368.4,29.4,1008.18,29.22,34.44,371.84,369.31,350.95,18.36
124.848,5/4/99,20:20:50,-4.881,93.881,390.75,368.4,29.4,1007.88,29.21,34.44,372.2,369.57,350.95,18.62
124.851,5/4/99,20:25:20,-4.87,93.87,391.06,368.4,29.4,1007.77,29.21,34.43,372.45,369.78,350.95,18.83
124.854,5/4/99,20:29:50,-4.858,93.858,390.77,368.4,29.4,1007.89,29.24,34.43,372.2,370.02,350.95,19.07
124.866,5/4/99,20:46:22,-4.816,93.816,390.75,368.4,29.44,1007.7,29.26,34.41,372.08,369.54,350.95,18.59
124.869,5/4/99,20:50:50,-4.804,93.805,390.62,368.4,29.44,1007.8,29.29,34.42,371.97,369.89,350.95,18.94
124.872,5/4/99,20:55:20,-4.793,93.793,390.4,368.4,29.47,1008.01,29.3,34.45,371.83,369.44,350.95,18.49
124.875,5/4/99,20:59:50,-4.782,93.782,390.71,368.4,29.47,1007.8,29.3,34.46,372.05,369.68,350.95,18.73
124.886,5/4/99,21:16:24,-4.74,93.74,392.86,370,29.48,1007.85,29.3,34.49,374.11,371.57,352.3,19.27
124.889,5/4/99,21:20:50,-4.729,93.729,392.81,370,29.48,1007.93,29.3,34.49,374.1,371.62,352.3,19.32
124.893,5/4/99,21:25:20,-4.718,93.717,391.83,370,29.47,1007.83,29.3,34.48,373.12,370.75,352.3,18.45
124.896,5/4/99,21:29:50,-4.706,93.706,391.37,370,29.47,1007.71,29.27,34.48,372.67,369.86,352.3,17.56
124.907,5/4/99,21:46:22,-4.665,93.664,392.18,370,29.44,1007.78,29.27,34.46,373.46,371.14,352.3,18.84
124.91,5/4/99,21:50:50,-4.653,93.652,391.3,370,29.44,1007.91,29.28,34.47,372.67,370.44,352.3,18.14
124.913,5/4/99,21:55:20,-4.642,93.641,391.8,370,29.45,1007.75,29.28,34.47,373.09,370.7,352.3,18.4
124.917,5/4/99,21:59:50,-4.631,93.63,390.97,370,29.45,1008,29.25,34.45,372.42,369.6,352.3,17.3
124.928,5/4/99,22:16:24,-4.59,93.588,389.22,369.57,29.39,1007.98,29.22,34.43,370.77,368.45,352.07,16.38
124.931,5/4/99,22:20:50,-4.578,93.576,389.31,369.57,29.4,1007.84,29.24,34.46,370.78,368.56,352.07,16.49
124.934,5/4/99,22:25:20,-4.567,93.565,389.86,369.57,29.42,1007.78,29.24,34.47,371.29,368.86,352.07,16.79
124.937,5/4/99,22:29:50,-4.556,93.553,391.16,369.57,29.4,1008.08,29.2,34.39,372.67,369.92,352.07,17.85
124.949,5/4/99,22:46:22,-4.514,93.512,392.04,369.57,29.4,1008.25,29.23,34.5,373.55,371.21,352.07,19.14
124.952,5/4/99,22:50:50,-4.502,93.5,391.16,369.57,29.39,1008.14,29.21,34.5,372.69,370.2,352.07,18.13
124.955,5/4/99,22:55:20,-4.498,93.498,390.85,369.57,29.4,1007.83,29.21,34.52,372.27,369.65,352.07,17.58
124.958,5/4/99,22:59:50,-4.498,93.498,391.6,369.57,29.38,1008.06,29.2,34.52,373.08,370.51,352.07,18.44
124.97,5/4/99,23:16:24,-4.498,93.498,392.2,368.92,29.36,1008.35,29.2,34.52,373.77,371.5,351.57,19.93
124.973,5/4/99,23:20:50,-4.497,93.498,391.08,368.92,29.37,1008.17,29.2,34.52,372.63,370.28,351.57,18.71
124.976,5/4/99,23:25:20,-4.498,93.498,391.1,368.92,29.36,1008.07,29.2,34.52,372.61,370.33,351.57,18.76
124.979,5/4/99,23:29:50,-4.498,93.499,391.69,368.92,29.36,1008.12,29.2,34.52,373.2,370.91,351.57,19.34
124.991,5/4/99,23:46:22,-4.48,93.481,391.08,368.92,29.37,1008.62,29.2,34.53,372.8,370.39,351.57,18.83
124.994,5/4/99,23:50:50,-4.468,93.469,391.8,368.92,29.37,1008.59,29.21,34.53,373.48,371.18,351.57,19.61
124.997,5/4/99,23:55:20,-4.457,93.458,392.18,368.92,29.38,1008.79,29.21,34.54,373.91,371.57,351.57,20.01
125,5/4/99,23:59:50,-4.446,93.446,391.19,368.92,29.37,1008.75,29.21,34.54,372.95,370.66,351.57,19.09
125.011,5/5/99,0:16:24,-4.405,93.404,391.56,369.08,29.4,1009.19,29.23,34.54,373.46,371.1,352.05,19.05
125.014,5/5/99,0:20:50,-4.393,93.392,392.73,369.08,29.4,1009.27,29.23,34.53,374.6,372.28,352.05,20.23
125.018,5/5/99,0:25:20,-4.383,93.381,392.24,369.08,29.4,1009.32,29.22,34.52,374.17,371.69,352.05,19.64
125.021,5/5/99,0:29:50,-4.371,93.369,391.96,369.08,29.39,1009.36,29.21,34.51,373.92,371.44,352.05,19.39
125.032,5/5/99,0:46:22,-4.33,93.327,391.28,369.08,29.36,1009.28,29.2,34.52,373.25,370.98,352.05,18.93
125.035,5/5/99,0:50:50,-4.318,93.315,390.88,369.08,29.36,1009.09,29.18,34.52,372.82,370.25,352.05,18.2
125.038,5/5/99,0:55:20,-4.307,93.304,390.82,369.08,29.34,1009.37,29.21,34.57,372.83,370.99,352.05,18.94
125.042,5/5/99,0:59:50,-4.295,93.292,392.71,369.08,29.37,1009.16,29.22,34.58,374.55,372.41,352.05,20.36
125.053,5/5/99,1:16:24,-4.253,93.25,394.1,369.51,29.41,1009.14,29.26,34.63,375.83,373.8,352.48,21.31
125.056,5/5/99,1:20:50,-4.241,93.238,394.01,369.51,29.42,1009.25,29.26,34.66,375.79,373.61,352.48,21.13
125.059,5/5/99,1:25:20,-4.23,93.227,394.84,369.51,29.43,1009.26,29.27,34.67,376.58,374.37,352.48,21.89
125.062,5/5/99,1:29:50,-4.218,93.215,396.7,369.51,29.44,1009.43,29.27,34.67,378.41,376.08,352.48,23.59
125.074,5/5/99,1:46:22,-4.176,93.174,396.15,369.51,29.42,1009.29,29.26,34.67,377.85,375.58,352.48,23.09
125.077,5/5/99,1:50:50,-4.163,93.162,396.48,369.51,29.42,1009.45,29.26,34.66,378.22,376.01,352.48,23.53
125.08,5/5/99,1:55:20,-4.152,93.151,396.83,369.51,29.43,1009.42,29.26,34.66,378.54,376.21,352.48,23.72
125.083,5/5/99,1:59:50,-4.14,93.139,396.46,369.51,29.43,1009.53,29.26,34.68,378.23,375.88,352.48,23.39
125.095,5/5/99,2:16:24,-4.098,93.097,396.79,369.43,29.41,1009.48,29.25,34.66,378.54,376.23,352.51,23.72
125.098,5/5/99,2:20:50,-4.086,93.085,396.77,369.43,29.42,1009.72,29.27,34.67,378.6,376.42,352.51,23.92
125.101,5/5/99,2:25:20,-4.074,93.074,397.74,369.43,29.43,1009.56,29.29,34.69,379.44,377.4,352.51,24.89
125.104,5/5/99,2:29:50,-4.063,93.062,398.09,369.43,29.46,1009.79,29.29,34.69,379.86,377.47,352.51,24.96
125.116,5/5/99,2:46:22,-4.02,93.02,398.74,369.43,29.5,1009.87,29.34,34.71,380.48,378.17,352.51,25.66
125.119,5/5/99,2:50:50,-4.008,93.007,399.12,369.43,29.51,1009.75,29.33,34.72,380.8,378.22,352.51,25.71
125.122,5/5/99,2:55:20,-3.999,92.997,399.27,369.43,29.5,1009.83,29.34,34.72,380.96,378.76,352.51,26.25
125.125,5/5/99,2:59:50,-3.997,92.998,399.95,369.43,29.5,1010.07,29.33,34.71,381.72,379.34,352.51,26.83
125.136,5/5/99,3:16:24,-3.998,92.997,400.65,369.74,29.52,1009.82,29.35,34.72,382.27,379.91,352.83,27.08
125.139,5/5/99,3:20:50,-3.997,92.997,401.29,369.74,29.53,1009.64,29.36,34.72,382.8,380.41,352.83,27.58
125.143,5/5/99,3:25:20,-3.998,92.997,401.51,369.74,29.53,1009.78,29.36,34.72,383.06,380.67,352.83,27.85
125.146,5/5/99,3:29:50,-3.998,92.997,401.29,369.74,29.53,1010.06,29.36,34.72,382.97,380.49,352.83,27.66
125.157,5/5/99,3:46:22,-3.998,92.997,400.43,369.74,29.55,1010.16,29.37,34.72,382.18,379.58,352.83,26.75
125.16,5/5/99,3:50:50,-3.998,92.997,400.21,369.74,29.55,1010.09,29.39,34.73,381.92,379.65,352.83,26.83
125.163,5/5/99,3:55:20,-3.996,92.997,400.68,369.74,29.55,1009.89,29.38,34.73,382.29,379.94,352.83,27.11
125.167,5/5/99,3:59:50,-3.986,92.986,400.48,369.74,29.56,1010.04,29.39,34.72,382.15,379.68,352.83,26.85
125.178,5/5/99,4:16:24,-3.985,92.985,402.11,369.64,29.62,1009.86,29.42,34.74,383.62,380.83,352.75,28.08
125.181,5/5/99,4:20:50,-3.985,92.985,402.47,369.64,29.6,1010.06,29.39,34.73,384.06,381.09,352.75,28.34
125.184,5/5/99,4:25:20,-3.985,92.985,402.14,369.64,29.58,1009.86,29.36,34.71,383.69,380.53,352.75,27.78
125.187,5/5/99,4:29:50,-3.985,92.985,400.8,369.64,29.54,1009.98,29.32,34.68,382.5,379.38,352.75,26.63
125.199,5/5/99,4:46:22,-3.873,92.874,396.78,369.64,29.48,1009.72,29.29,34.62,378.59,375.92,352.75,23.17
125.202,5/5/99,4:50:50,-3.873,92.874,396.17,369.64,29.47,1009.78,29.29,34.6,378.03,375.46,352.75,22.71